Iowa City, IA

12:05 PM CST on February 14, 2016 (GMT -0600)
Iowa City Municipal

Weather History for KIOW - October, 2013

Change the Weather History Date:

Thursday, October 24, 2013

  Actual Average Record
Temperature  
Mean Temperature 36 °F 49 °F  
Max Temperature 43 °F 59 °F 81 °F (1963)
Min Temperature 28 °F 39 °F 21 °F (1999)
Degree Days  
Heating Degree Days 29 16  
Month to date heating degree days 295 291  
Since 1 July heating degree days 361 403  
Cooling Degree Days 0 0  
Month to date cooling degree days 23 10  
Year to date cooling degree days 1064 912  
Moisture  
Dew Point 24 °F    
Average Humidity 64    
Maximum Humidity 85    
Minimum Humidity 43    
Precipitation  
Precipitation 0.00 in 0.10 in 1.12 in (1967)
Month to date precipitation 1.77 2.21  
Year to date precipitation 31.96 31.75  
Sea Level Pressure  
Sea Level Pressure 30.28 in    
Wind  
Wind Speed 8 mph (NW)    
Max Wind Speed 20 mph    
Max Gust Speed 25 mph    
Visibility 10 miles    
Events      
T = Trace of Precipitation, MM = Missing Value Source: NWS Daily Summary

Daily Weather History Graph

Daily Weather History Graph

Search for Another Location

Airport or City:

Trip Planner

Search our weather history database for the weather conditions in past years. The results will help you decide how hot, cold, wet, or windy it might be!

Date:

Astronomy

Oct. 24, 2013 Rise Set
Actual Time 7:28 AM CDT 6:11 PM CDT
Civil Twilight 7:00 AM CDT 6:39 PM CDT
Nautical Twilight 6:28 AM CDT 7:11 PM CDT
Astronomical Twilight 5:55 AM CDT 7:44 PM CDT
Moon 10:34 PM CDT (10/24) 12:31 PM CDT (10/24)
Length of Visible Light 11h 38m
Length of Day
10h 42m
Waning Gibbous, 71% of the Moon is Illuminated
Oct 24
Waning Gibbous
Oct 26
Last Quarter
Nov 3
New
Nov 9
First Quarter
Nov 17
Full

Hourly Weather History & Observations

Time (CDT) Temp. Windchill Dew Point Humidity Pressure Visibility Wind Dir Wind Speed Gust Speed Precip Events Conditions
12:52 AM 36.0 °F 30.3 °F 24.1 °F 62% 30.13 in 10.0 mi NW 6.9 mph - N/A   Overcast
1:52 AM 36.0 °F 32.1 °F 24.1 °F 62% 30.14 in 10.0 mi WNW 4.6 mph - N/A   Overcast
2:52 AM 35.1 °F 30.1 °F 26.1 °F 70% 30.15 in 10.0 mi West 5.8 mph - N/A   Overcast
3:52 AM 34.0 °F 28.8 °F 26.1 °F 73% 30.15 in 10.0 mi WNW 5.8 mph - N/A   Overcast
4:52 AM 35.1 °F 28.6 °F 26.1 °F 70% 30.18 in 10.0 mi WNW 8.1 mph - N/A   Overcast
5:52 AM 35.1 °F 28.6 °F 27.0 °F 72% 30.20 in 10.0 mi NW 8.1 mph - N/A   Overcast
6:52 AM 34.0 °F 26.6 °F 25.0 °F 70% 30.21 in 10.0 mi NW 9.2 mph - N/A   Overcast
7:52 AM 33.1 °F 26.9 °F 24.1 °F 70% 30.23 in 10.0 mi NW 6.9 mph - N/A   Mostly Cloudy
8:52 AM 35.1 °F 27.4 °F 24.1 °F 64% 30.26 in 10.0 mi NNW 10.4 mph - N/A   Overcast
9:52 AM 36.0 °F 26.7 °F 19.9 °F 52% 30.29 in 10.0 mi NNW 15.0 mph - N/A   Overcast
10:52 AM 36.0 °F 28.0 °F 21.0 °F 55% 30.31 in 10.0 mi NNW 11.5 mph 21.9 mph N/A   Overcast
11:52 AM 37.9 °F 28.5 °F 21.0 °F 51% 30.32 in 10.0 mi NNW 17.3 mph 25.3 mph N/A   Overcast
12:52 PM 39.9 °F 31.4 °F 23.0 °F 51% 30.32 in 10.0 mi NW 16.1 mph 20.7 mph N/A   Overcast
1:52 PM 39.0 °F 30.3 °F 23.0 °F 53% 30.32 in 10.0 mi NNW 16.1 mph 20.7 mph N/A   Overcast
2:52 PM 41.0 °F 33.9 °F 23.0 °F 49% 30.32 in 10.0 mi NW 12.7 mph 18.4 mph N/A   Overcast
3:52 PM 42.1 °F 35.7 °F 23.0 °F 47% 30.32 in 10.0 mi NW 11.5 mph 20.7 mph N/A   Mostly Cloudy
4:52 PM 42.1 °F 37.1 °F 21.9 °F 45% 30.32 in 10.0 mi NW 8.1 mph - N/A   Overcast
5:52 PM 41.0 °F 36.4 °F 23.0 °F 49% 30.34 in 10.0 mi NW 6.9 mph - N/A   Overcast
6:52 PM 39.0 °F 36.8 °F 25.0 °F 57% 30.35 in 10.0 mi NW 3.5 mph - N/A   Scattered Clouds
7:52 PM 32.0 °F 28.7 °F 26.1 °F 79% 30.37 in 10.0 mi West 3.5 mph - N/A   Clear
8:52 PM 32.0 °F - 26.1 °F 79% 30.38 in 10.0 mi Calm Calm - N/A   Clear
9:52 PM 30.9 °F - 25.0 °F 79% 30.39 in 10.0 mi Calm Calm - N/A   Clear
10:52 PM 30.0 °F - 24.1 °F 79% 30.40 in 10.0 mi Calm Calm - N/A   Clear
11:52 PM 28.9 °F - 24.1 °F 82% 30.40 in 10.0 mi Calm Calm - N/A   Clear